TimeCDT,TemperatureF,Dew PointF,Humidity,Sea Level PressureIn,VisibilityMPH,Wind Direction,Wind SpeedMPH,Gust SpeedMPH,PrecipitationIn,Events,Conditions,WindDirDegrees,DateUTC
12:15 AM,46.0,36.0,68,30.04,10.0,South,6.9,-,N/A,,Clear,180,2012-10-09 05:15:00
12:35 AM,46.4,35.6,66,30.03,10.0,South,6.9,-,N/A,,Clear,180,2012-10-09 05:35:00
12:55 AM,45.5,36.5,71,30.03,10.0,South,6.9,-,N/A,,Clear,180,2012-10-09 05:55:00
1:15 AM,45.7,36.5,70,30.03,10.0,South,6.9,-,N/A,,Clear,180,2012-10-09 06:15:00
1:35 AM,46.4,37.4,71,30.03,10.0,South,8.1,-,N/A,,Clear,180,2012-10-09 06:35:00
1:55 AM,45.7,36.7,71,30.03,10.0,South,6.9,-,N/A,,Clear,180,2012-10-09 06:55:00
2:35 AM,46.2,37.0,70,30.03,10.0,South,6.9,-,N/A,,Clear,190,2012-10-09 07:35:00
2:55 AM,46.4,37.4,71,30.02,10.0,South,6.9,-,N/A,,Clear,190,2012-10-09 07:55:00
3:15 AM,45.5,37.4,73,30.01,10.0,South,5.8,-,N/A,,Clear,180,2012-10-09 08:15:00
3:35 AM,44.4,37.4,76,30.01,10.0,South,6.9,-,N/A,,Clear,180,2012-10-09 08:35:00
3:55 AM,44.6,37.4,76,30.01,10.0,South,6.9,-,N/A,,Clear,180,2012-10-09 08:55:00
4:15 AM,43.7,37.4,78,30.01,10.0,South,5.8,-,N/A,,Clear,180,2012-10-09 09:15:00
4:35 AM,42.8,37.4,81,30.01,10.0,South,6.9,-,N/A,,Clear,170,2012-10-09 09:35:00
4:55 AM,43.5,37.8,80,30.01,10.0,South,8.1,-,N/A,,Clear,180,2012-10-09 09:55:00
5:15 AM,43.7,37.9,80,30.01,10.0,South,6.9,-,N/A,,Clear,190,2012-10-09 10:15:00
5:35 AM,43.2,37.9,82,30.01,10.0,South,6.9,-,N/A,,Clear,180,2012-10-09 10:35:00
5:55 AM,43.3,38.3,82,30.01,10.0,South,6.9,-,N/A,,Clear,180,2012-10-09 10:55:00
6:15 AM,43.3,38.3,82,30.02,10.0,South,6.9,-,N/A,,Clear,180,2012-10-09 11:15:00
6:35 AM,42.3,37.8,84,30.02,10.0,South,5.8,-,N/A,,Clear,180,2012-10-09 11:35:00
6:55 AM,41.9,37.9,86,30.02,10.0,South,6.9,-,N/A,,Clear,170,2012-10-09 11:55:00
7:15 AM,42.1,38.3,86,30.02,10.0,South,5.8,-,N/A,,Clear,180,2012-10-09 12:15:00
7:35 AM,42.8,38.5,85,30.02,10.0,South,5.8,-,N/A,,Clear,180,2012-10-09 12:35:00
7:55 AM,44.1,39.2,83,30.02,10.0,South,5.8,-,N/A,,Clear,180,2012-10-09 12:55:00
8:15 AM,45.5,39.7,80,30.02,10.0,South,6.9,-,N/A,,Clear,180,2012-10-09 13:15:00
8:35 AM,47.5,40.6,77,30.01,10.0,South,6.9,-,N/A,,Clear,180,2012-10-09 13:35:00
8:55 AM,49.5,41.2,73,30.02,10.0,South,11.5,-,N/A,,Clear,190,2012-10-09 13:55:00
9:15 AM,50.9,41.5,70,30.01,10.0,South,9.2,-,N/A,,Clear,190,2012-10-09 14:15:00
9:35 AM,52.0,41.7,68,30.01,10.0,SSW,9.2,16.1,N/A,,Clear,200,2012-10-09 14:35:00
9:55 AM,53.4,42.1,65,30.01,10.0,SSW,11.5,18.4,N/A,,Clear,200,2012-10-09 14:55:00
10:15 AM,54.7,42.3,63,30.01,10.0,SSW,11.5,-,N/A,,Clear,200,2012-10-09 15:15:00
10:35 AM,55.9,42.3,60,30.01,10.0,SSW,10.4,16.1,N/A,,Clear,210,2012-10-09 15:35:00
10:55 AM,57.9,42.8,57,30.00,10.0,SSW,9.2,-,N/A,,Clear,210,2012-10-09 15:55:00
11:15 AM,59.4,42.3,53,30.00,10.0,SW,12.7,16.1,N/A,,Clear,220,2012-10-09 16:15:00
11:35 AM,60.8,42.4,51,29.99,10.0,SSW,12.7,18.4,N/A,,Clear,200,2012-10-09 16:35:00
11:55 AM,62.1,42.6,49,29.98,10.0,SSW,10.4,-,N/A,,Clear,210,2012-10-09 16:55:00
12:15 PM,63.3,41.5,45,29.97,10.0,SSW,12.7,-,N/A,,Clear,210,2012-10-09 17:15:00
12:35 PM,63.5,41.5,45,29.96,10.0,SSW,12.7,-,N/A,,Clear,210,2012-10-09 17:35:00
12:55 PM,64.4,40.5,41,29.95,10.0,SW,15.0,23.0,N/A,,Clear,230,2012-10-09 17:55:00
1:15 PM,64.6,40.6,42,29.94,10.0,SW,12.7,21.9,N/A,,Clear,230,2012-10-09 18:15:00
1:35 PM,65.7,41.4,41,29.92,10.0,SSW,11.5,19.6,N/A,,Clear,200,2012-10-09 18:35:00
1:55 PM,66.7,41.4,40,29.91,10.0,SW,16.1,21.9,N/A,,Clear,230,2012-10-09 18:55:00
2:15 PM,66.6,41.0,39,29.91,10.0,South,17.3,20.7,N/A,,Clear,190,2012-10-09 19:15:00
2:35 PM,66.9,41.2,39,29.91,10.0,SSW,16.1,21.9,N/A,,Clear,210,2012-10-09 19:35:00
2:55 PM,67.1,41.2,39,29.91,10.0,SW,13.8,23.0,N/A,,Clear,220,2012-10-09 19:55:00
3:15 PM,67.3,40.8,38,29.90,10.0,SSW,9.2,18.4,N/A,,Clear,210,2012-10-09 20:15:00
3:35 PM,67.6,40.6,37,29.90,10.0,SSW,10.4,18.4,N/A,,Clear,200,2012-10-09 20:35:00
3:55 PM,67.8,41.5,38,29.90,10.0,SW,15.0,21.9,N/A,,Clear,220,2012-10-09 20:55:00
4:15 PM,66.9,40.8,39,29.90,10.0,SW,12.7,-,N/A,,Clear,220,2012-10-09 21:15:00
4:35 PM,66.9,41.0,39,29.90,10.0,SW,13.8,18.4,N/A,,Scattered Clouds,220,2012-10-09 21:35:00
4:55 PM,67.5,42.1,40,29.90,10.0,SW,8.1,-,N/A,,Mostly Cloudy,220,2012-10-09 21:55:00
5:15 PM,66.7,41.5,40,29.90,10.0,SW,10.4,16.1,N/A,,Scattered Clouds,230,2012-10-09 22:15:00
5:35 PM,65.8,41.7,41,29.90,10.0,SW,10.4,-,N/A,,Scattered Clouds,230,2012-10-09 22:35:00
5:55 PM,65.3,42.8,44,29.90,10.0,SW,6.9,-,N/A,,Mostly Cloudy,220,2012-10-09 22:55:00
6:15 PM,64.6,42.8,45,29.89,10.0,SSW,6.9,-,N/A,,Mostly Cloudy,210,2012-10-09 23:15:00
6:35 PM,63.7,42.3,46,29.89,10.0,SSW,6.9,-,N/A,,Scattered Clouds,200,2012-10-09 23:35:00
6:55 PM,62.2,42.4,48,29.89,10.0,SSW,3.5,-,N/A,,Clear,200,2012-10-09 23:55:00
7:15 PM,62.4,42.8,49,29.90,10.0,Calm,Calm,-,N/A,,Mostly Cloudy,0,2012-10-10 00:15:00
7:35 PM,61.7,43.2,51,29.90,10.0,Calm,Calm,-,N/A,,Overcast,0,2012-10-10 00:35:00
7:55 PM,61.7,43.9,52,29.91,10.0,WSW,4.6,-,N/A,,Overcast,250,2012-10-10 00:55:00
8:15 PM,55.2,43.9,66,29.94,10.0,NNW,18.4,32.2,N/A,Rain,Light Rain,340,2012-10-10 01:15:00
8:35 PM,53.2,43.7,70,29.96,10.0,NNW,15.0,29.9,N/A,Rain,Rain,340,2012-10-10 01:35:00
8:55 PM,50.9,44.1,77,29.99,10.0,NNW,12.7,20.7,N/A,,Light Drizzle,330,2012-10-10 01:55:00
9:15 PM,49.6,44.8,83,30.00,10.0,NNW,11.5,-,N/A,Rain,Light Rain,340,2012-10-10 02:15:00
9:35 PM,48.4,44.1,85,30.02,10.0,NNW,11.5,17.3,N/A,,Drizzle,330,2012-10-10 02:35:00
9:55 PM,47.8,44.6,89,30.03,10.0,NW,9.2,-,N/A,Rain,Light Rain,310,2012-10-10 02:55:00
10:15 PM,46.6,43.2,88,30.04,7.0,NW,12.7,-,0.02,Rain,Rain,310,2012-10-10 03:15:00
10:35 PM,46.4,43.3,89,30.04,10.0,NNW,6.9,-,0.04,Rain,Rain,330,2012-10-10 03:35:00
10:55 PM,46.0,43.2,90,30.05,10.0,NW,4.6,-,0.05,Rain,Light Rain,310,2012-10-10 03:55:00
11:15 PM,46.2,43.5,90,30.05,10.0,NW,3.5,-,N/A,,Light Drizzle,310,2012-10-10 04:15:00
11:35 PM,46.4,43.5,90,30.05,10.0,WNW,3.5,-,N/A,Rain,Light Rain,300,2012-10-10 04:35:00
11:55 PM,45.7,43.0,90,30.05,10.0,West,4.6,-,N/A,,Mostly Cloudy,280,2012-10-10 04:55:00